Location: Unspecified
(0.0000°N, 0.0000°E)
Time: 19:00:17
(UTC+00:00)

Vanguard 3 - Pass Details

Date: 24 September 2023
Orbit: 507 x 3241 km, 33.3° (Epoch: 29 November)

Event Time Altitude Azimuth Distance (km) Brightness Sun altitude
Rises 04:47:52 0° 292° (WNW) 3,095 - -16.1°
Reaches altitude 10° 04:49:52 10° 287° (WNW) 2,371 - -15.6°
Exits shadow 04:51:31 22° 278° (W) 1,845 8.3 -15.2°
Maximum altitude 04:55:18 53° 210° (SSW) 1,346 8.0 -14.2°
Drops below altitude 10° 05:04:47 10° 136° (SE) 4,069 11.4 -11.9°
Sets 05:09:17 0° 132° (SE) 5,544 12.2 -10.7°
